Погода в Красном

Россия / Ненецкий автономный округ     67°50′07″N   53°36′05″E
темп.,
°C
ветер,
м/с
пор.,
м/с
влажн.,
%
обл.,
%
осадки,
мм/ч
давл.,
гПа
погр.,
м
4 марта, чт
чт400:00−14ссз4796100 0.3 990170
03:00−14ссв4796100 0.4 990177
06:00−14св599598 0.3 990295
09:00−16св6109499 0.4 991350
12:00−16ссв6993100 0.1 992416
15:00−17ссв5995100 0.1 994225
18:00−18с479897 0.0 994121
21:00−18с589798 0.1 995173
5 марта, пт
пт500:00−17с5995100 0.1 996406
03:00−18с51096100 0.1 997289
06:00−19с5996100 0.1 997342
09:00−19с6995100 0.3 998412
12:00−19с6893100 0.1 1000513
15:00−19с5794100 0.2 1002513
18:00−21с479896 0.1 1003174
21:00−24с479897 0.2 1004138
6 марта, сб
сб600:00−25ссз349888 0.1 100470
03:00−26ссз349893 0.1 100540
06:00−24ссз359899 0.1 1005157
09:00−24ссз359797 0.1 1005163
12:00−23сз339498 0.1 1005326
15:00−24сз239699 0.1 100548
18:00−26сз229997 0.0 100519
21:00−27зсз129994 0.1 100519
7 марта, вс
вс700:00−27з129984 0.0 100419
03:00−26зюз129890 0.1 100527
06:00−27зюз129897 0.1 100519
09:00−25юз129794 0.1 100563
12:00−24юз119482 0.0 100697
15:00−26юв009685 0.0 100719
18:00−27вюв019690 0.0 100819
21:00−26всв119791 0.0 100919
8 марта, пн
пн800:00−26св129886 0.0 100919
03:00−27св229985 0.1 101019
06:00−25св229893 0.1 101037
09:00−25ссв129790 0.1 101120
12:00−23с129697 0.0 1012140
15:00−24с229896 0.1 101221
18:00−26ссв2310086 0.0 101319
21:00−28с2210089 0.0 101419